Tracking 26951 objects as of 4-Feb-2023
HD Live streaming from Space Station
objects crossing your sky now

NOAA 16 DEB

Track NOAA 16 DEB now!
10-day predictions


NORAD ID: 41398
Int'l Code: 2000-055KB
Perigee: 816.6 km
Apogee: 847.7 km
Inclination: 98.8 °
Period: 101.4 minutes
Semi major axis: 7203 km
RCS: Unknown
Launch date: September 21, 2000
Source: United States (US)
Launch site: AIR FORCE WESTERN TEST RANGE (AFWTR)

Note: This is SATELLITE DEBRIS
Your satellite tracking list
Your tracking list is empty




NASA's NSSDC Master Catalog

Two Line Element Set (TLE):
1 41398U 00055KB  23034.72003822  .00003095  00000-0  14693-2 0  9993
2 41398  98.8054 129.9297 0021572 203.1561 156.8645 14.20107063358662
Source of the keplerian elements: AFSPC